Regional Weather Roundup
Issued by NWS

Home | Current Version | Previous Version | Graphics & Text | Print | Product List | Glossary On
Versions: 1 2 3 4 5 6 7 8 9 10 11 12 13 14 15 16 17 18 19 20 21 22 23 24 25 26 27 28 29 30 31 32 33 34 35 36 37 38 39 40 41 42 43 44 45 46 47 48 49 50
000
ASUS45 KABQ 290901
RWRNM
WEATHER ROUNDUP FOR NEW MEXICO
NATIONAL WEATHER SERVICE ALBUQUERQUE NM
300 AM MDT TUE JUL 29 2014

NOTE: "FAIR" MEANS FEW OR NO CLOUDS BELOW 12,000 FEET AGL WITH NO
       SIGNIFICANT WEATHER OR OBSTRUCTIONS TO VISION.

      THIS PRODUCT IS RELEASED AS TWO VERSIONS.  ONE VERSION NEAR
      THE TOP OF THE HOUR CONTAINING PRELIMINARY DATA FROM ALBUQUERQUE
      AND OTHER STATIONS.  A FINAL VERSION WITH ADDITIONAL DATA IS
      ISSUED ABOUT 10 MINUTES AFTER THE HOUR.

NMZ501-503-504-510>518-291000-
NORTHWEST PLATEAU/NORTHCENTRAL MOUNTAINS

CITY           SKY/WX    TMP DP  RH WIND       PRES   REMARKS
FARMINGTON     LGT RAIN  64  58  80 E3        30.31F
LOS ALAMOS     RAIN      59  58  99 S3        30.43S
SANTA FE       LGT RAIN  60  58  92 SE5       30.38F
TAOS           MOCLDY    57  52  82 CALM      30.43F
ANGEL FIRE     FAIR      52  50  95 W5        30.50F FOG

$$
NMZ402-403-502-505>509-291000-
WESTCENTRAL MOUNTAINS/SOUTHWEST MOUNTAINS

CITY           SKY/WX    TMP DP  RH WIND       PRES   REMARKS
GALLUP         CLOUDY    62  58  86 CALM      30.37F

$$
NMZ407-409-411-412-291000-
SOUTHERN DESERTS

CITY           SKY/WX    TMP DP  RH WIND       PRES   REMARKS
LORDSBURG      FAIR      68  59  73 CALM      30.19S
DEMING         MOCLDY    74  60  61 CALM      30.18F
LAS CRUCES     CLOUDY    71  64  79 NW9       30.23R
HOLLOMAN AFB   CLOUDY    70  70 100 N8        30.19F
T OR C         MOCLDY    70  59  68 SE5       30.24F

$$
NMZ519>523-291000-
CENTRAL VALLEYS/CENTRAL HIGHLANDS

CITY           SKY/WX    TMP DP  RH WIND       PRES   REMARKS
ALBUQUERQUE    LGT RAIN  67  59  75 E9        30.31S
DOUBLE EAGLE   MOCLDY    64  58  82 NE6       30.34F
CLINES CORNERS LGT RAIN  60  58  92 CALM      30.41F
BELEN          CLOUDY    66  62  84 NE6       30.30S
SOCORRO        CLOUDY    70  60  71 E9        30.28R

$$
NMZ524>526-539-540-291000-
SOUTHCENTRAL MOUNTAINS

CITY           SKY/WX    TMP DP  RH WIND       PRES   REMARKS
RUIDOSO        NOT AVBL

$$
NMZ527>531-291000-
NORTHEAST HIGHLANDS/NORTHEAST PLAINS

CITY           SKY/WX    TMP DP  RH WIND       PRES   REMARKS
LAS VEGAS      CLOUDY    58  57  97 SE6       30.40S
RATON          MOCLDY    59  57  93 CALM      30.34F
CLAYTON        CLOUDY    64  62  93 S8        30.28F FOG

$$
NMZ532>537-291000-
EASTCENTRAL PLAINS

CITY           SKY/WX    TMP DP  RH WIND       PRES   REMARKS
TUCUMCARI      LGT RAIN  71  65  81 CALM      30.24F
CANNON AFB     MOCLDY    66  64  94 S7        30.27S
CLOVIS AIRPORT NOT AVBL

$$
NMZ028-029-538-291000-
SOUTHEAST PLAINS

CITY           SKY/WX    TMP DP  RH WIND       PRES   REMARKS
ROSWELL        LGT RAIN  71  67  87 E7        30.21S
ARTESIA        MOCLDY    77  63  61 E7        30.19F
CARLSBAD       CLEAR     78  62  57 SE3       30.15F
HOBBS          PTCLDY    73  63  68 E13       30.21F


$$


USA.gov is the U.S. government's official web portal to all federal, state and local government web resources and services.